Tracking 30070 objects as of 15-Jan-2025
HD Live streaming from Space Station
objects crossing your sky now

COSMOS 1275 DEB

Track COSMOS 1275 DEB now!
10-day predictions


NORAD ID: 42191
Int'l Code: 1981-053TF
Perigee: 852.9 km
Apogee: 896.6 km
Inclination: 82.8 °
Period: 102.3 minutes
Semi major axis: 7245 km
RCS: Unknown
Launch date: June 4, 1981
Source: Commonwealth of Independent States (former USSR) (CIS)
Launch site: PLESETSK MISSILE AND SPACE COMPLEX (PKMTR)

Note: This is SATELLITE DEBRIS
Your satellite tracking list
Your tracking list is empty




NASA's NSSDC Master Catalog

Two Line Element Set (TLE):
1 42191U 81053TF  25014.17707080  .00003418  00000-0  20081-2 0  9995
2 42191  82.8219 180.3276 0030158  53.3722 307.0218 14.07603462570078
Source of the keplerian elements: AFSPC